Probability
0 0 0 3 19 6 0 0 0 0 0 0 0 3 6 10 19 19 32 39 55 48 48 71 81 77 71 74 71 71 61 58 61 65 61 61 71 68 68 71 71 74 74 71 68 68 68 61 48
0 0 0 10 13 3 0 0 0 0 0 0 0 3 6 6 6 16 29 52 48 52 48 61 74 71 74 68 71 65 61 58 58 58 61 65 61 68 71 71 71 71 77 74 71 71 61 61 58
0 0 0 6 6 0 0 0 0 0 0 0 3 10 23 13 13 16 29 42 48 55 65 74 77 71 71 71 74 65 52 55 58 61 61 65 65 68 71 61 61 68 65 68 71 71 68 61 52
0 3 3 0 0 0 0 0 0 0 0 0 10 13 19 13 13 16 26 45 52 52 52 68 81 68 65 65 65 61 48 55 52 58 61 65 65 65 65 65 55 61 65 68 65 68 68 65 48
0 0 0 0 0 0 0 0 3 0 0 0 10 16 26 26 23 23 29 45 52 42 52 58 77 68 65 61 61 55 45 52 48 55 58 58 65 61 58 61 65 61 58 52 55 58 68 55 48
0 0 0 0 0 0 0 0 0 0 0 6 13 19 19 32 26 26 26 29 35 45 45 52 81 71 61 58 61 55 55 48 45 48 48 52 52 52 52 52 52 55 52 55 52 52 48 45 45
0 0 0 0 0 0 0 0 0 0 0 0 10 19 29 35 32 23 29 29 35 45 45 48 48 61 65 65 61 52 55 48 45 52 55 52 55 52 55 55 55 52 55 48 45 52 45 35 42
0 0 0 0 0 0 0 0 0 0 3 3 10 13 29 35 35 29 29 35 39 32 35 32 45 48 45 45 55 52 52 55 52 48 48 52 48 61 61 58 55 48 45 45 52 42 42 39 32
0 0 0 0 0 0 0 0 0 3 6 6 13 19 39 39 32 35 35 32 32 32 35 35 35 42 39 32 32 48 55 58 48 42 52 55 42 42 55 45 52 48 42 42 45 32 39 35 35
0 0 0 0 0 0 0 0 0 3 6 13 13 32 39 35 39 32 23 32 35 32 32 39 35 35 35 29 42 48 39 52 45 45 45 45 55 55 35 39 45 42 42 39 42 42 35 26 26
0 0 0 0 0 0 0 0 3 3 6 10 19 23 39 45 29 35 32 39 42 35 35 32 35 45 35 52 52 55 48 61 45 48 45 58 55 48 42 45 42 42 39 39 48 42 32 29 32
0 0 0 3 0 0 0 0 3 3 6 10 16 26 39 35 32 29 39 39 42 45 39 39 35 52 58 52 52 61 52 45 45 58 42 52 55 55 55 55 39 45 42 39 42 35 35 29 29
0 0 0 0 0 0 0 0 3 3 3 6 19 23 35 32 32 35 45 42 45 48 39 45 48 61 68 68 65 48 52 52 48 52 48 45 52 48 42 45 52 39 39 39 39 32 39 32 29
0 0 0 0 0 0 0 3 3 3 3 6 13 16 26 23 26 32 45 45 45 45 45 45 52 48 55 61 58 61 52 58 45 45 42 39 39 45 48 45 42 45 42 32 35 35 42 29 29
0 0 0 0 0 3 3 0 10 0 3 13 13 23 29 29 23 29 45 48 45 55 52 48 39 55 55 55 55 48 45 42 42 42 35 32 42 42 39 42 42 45 42 32 32 29 29 26 23
0 0 0 0 0 3 3 3 3 0 6 13 23 23 26 29 19 26 39 45 48 52 58 52 32 48 52 55 55 52 45 45 42 42 39 35 32 35 35 35 32 39 39 35 35 35 39 29 23
0 0 0 0 0 3 3 0 6 3 6 10 16 19 23 32 19 26 35 48 55 61 58 52 48 55 55 48 58 48 58 55 45 35 35 32 29 32 39 39 39 35 35 32 19 39 39 32 26
0 0 0 0 0 3 3 6 6 3 10 6 16 23 26 29 26 26 35 45 52 55 55 48 45 58 61 55 61 61 52 45 48 39 32 35 32 32 35 42 42 45 39 45 42 39 42 48 45
0 0 0 0 0 0 3 10 10 6 10 6 10 13 26 23 29 26 35 42 48 52 52 52 48 58 65 55 48 52 52 48 42 35 29 32 32 32 42 29 45 48 48 42 42 42 42 42 39
0 0 0 0 0 0 3 6 10 13 13 6 19 19 19 23 26 32 42 48 55 52 52 52 55 48 55 48 52 52 48 48 45 39 39 35 35 35 26 39 48 52 55 48 42 42 42 39 39
0 0 0 0 0 0 0 3 10 10 10 6 13 19 19 26 32 35 42 45 48 52 45 45 52 52 45 48 52 48 52 52 45 42 42 39 35 45 42 39 39 42 45 45 45 45 39 35 29
0 0 0 0 0 0 0 0 10 10 10 13 10 10 16 29 29 35 45 45 45 42 45 48 52 52 52 45 39 52 48 45 39 48 39 42 32 35 35 35 39 39 42 42 39 32 35 35 26
0 0 0 0 0 0 0 0 10 16 23 23 13 13 16 16 26 39 42 45 45 42 42 42 48 52 52 52 48 45 45 48 45 42 48 45 42 39 35 39 42 45 42 42 39 39 39 35 32
0 0 0 0 0 0 0 0 3 10 23 16 10 10 10 13 26 39 39 42 39 42 42 45 45 48 52 48 48 48 48 52 48 55 48 42 45 42 42 39 42 42 42 48 42 39 29 29 16
0 0 0 0 0 0 0 0 0 13 13 16 13 6 10 19 29 39 32 39 42 42 42 45 45 45 45 45 48 48 52 52 52 45 45 45 42 39 48 35 39 35 39 42 32 35 29 19 16
0 0 0 0 0 0 0 0 6 10 6 10 13 10 16 26 29 32 35 39 42 42 42 42 42 42 42 42 45 48 45 45 42 45 35 35 35 29 32 32 29 32 29 23 26 13 19 13 10
0 0 0 0 0 0 0 0 10 10 10 13 10 16 23 26 29 29 32 35 35 39 42 42 42 42 42 45 45 45 42 42 42 39 39 35 39 26 29 26 29 26 23 19 13 6 13 13 13
0 0 0 0 0 0 0 0 6 16 23 23 26 26 26 29 26 29 32 35 35 35 35 42 42 42 42 42 45 39 35 39 32 32 39 39 35 29 26 23 26 26 19 19 13 13 13 13 16
0 0 0 0 0 0 0 0 3 29 29 26 23 23 29 29 29 29 32 35 35 35 32 35 42 42 42 42 39 35 35 35 29 32 35 35 29 19 26 26 23 19 19 19 16 16 16 16 16
0 0 0 0 0 0 0 0 6 19 19 19 23 23 23 29 26 29 35 35 35 35 39 35 39 39 39 39 35 35 39 32 35 32 35 29 23 23 19 19 23 19 23 19 13 13 13 16 10
Height
5884 5884 5885 5886 5887 5887 5888 5889 5888 5887 5887 5886 5886 5885 5884 5884 5884 5885 5882 5880 5879 5879 5878 5877 5876 5876 5875 5874 5874 5873 5872 5871 5870 5870 5870 5869 5869 5869 5869 5869 5869 5869 5870 5870 5871 5871 5872 5872 5873
5884 5884 5885 5886 5886 5887 5888 5888 5888 5886 5886 5886 5885 5884 5884 5883 5883 5882 5880 5880 5879 5878 5877 5876 5876 5875 5874 5874 5873 5872 5872 5871 5870 5869 5869 5869 5869 5868 5869 5869 5869 5869 5869 5870 5870 5871 5872 5872 5873
5883 5883 5885 5885 5886 5887 5888 5887 5886 5884 5885 5885 5885 5884 5884 5883 5882 5881 5880 5879 5878 5877 5877 5876 5875 5874 5873 5873 5872 5872 5871 5870 5870 5869 5869 5868 5868 5868 5868 5868 5868 5868 5869 5869 5870 5870 5871 5871 5872
5882 5883 5884 5885 5885 5886 5886 5886 5884 5884 5884 5884 5883 5883 5882 5882 5881 5880 5879 5878 5877 5876 5875 5874 5874 5873 5872 5872 5871 5870 5870 5869 5869 5869 5868 5868 5867 5867 5867 5867 5867 5867 5868 5868 5869 5869 5870 5870 5871
5881 5882 5883 5884 5885 5884 5885 5885 5883 5884 5884 5883 5883 5881 5881 5881 5880 5879 5878 5877 5876 5875 5874 5873 5872 5872 5871 5870 5870 5869 5869 5868 5868 5868 5867 5867 5866 5866 5866 5866 5866 5866 5866 5867 5868 5868 5869 5869 5870
5880 5881 5882 5883 5884 5884 5884 5884 5883 5883 5883 5882 5881 5880 5880 5880 5879 5878 5877 5876 5875 5874 5873 5872 5871 5870 5869 5869 5868 5868 5867 5867 5867 5866 5866 5866 5865 5865 5865 5865 5865 5865 5865 5866 5866 5867 5868 5868 5869
5878 5879 5880 5882 5883 5883 5883 5882 5882 5882 5882 5881 5881 5879 5879 5878 5878 5877 5875 5874 5873 5872 5871 5870 5869 5869 5868 5867 5867 5867 5866 5865 5865 5865 5864 5864 5864 5864 5864 5864 5863 5864 5864 5864 5865 5865 5866 5867 5867
5875 5878 5878 5880 5881 5881 5881 5880 5880 5880 5879 5879 5879 5878 5877 5877 5876 5875 5874 5873 5871 5870 5869 5869 5868 5867 5866 5866 5865 5865 5864 5864 5863 5863 5863 5862 5862 5862 5862 5862 5862 5862 5862 5863 5863 5864 5864 5865 5866
5873 5875 5876 5878 5879 5879 5878 5878 5878 5877 5877 5877 5877 5877 5876 5875 5874 5873 5872 5871 5870 5869 5868 5867 5866 5865 5865 5864 5864 5863 5862 5862 5861 5861 5860 5860 5860 5860 5860 5860 5860 5860 5861 5861 5861 5862 5863 5863 5864
5870 5871 5873 5874 5875 5876 5875 5875 5876 5876 5875 5875 5875 5875 5874 5874 5872 5871 5870 5869 5868 5867 5866 5865 5864 5864 5863 5862 5862 5861 5861 5860 5859 5859 5858 5858 5858 5858 5858 5858 5858 5858 5859 5859 5859 5860 5860 5861 5862
5867 5869 5870 5870 5871 5872 5873 5874 5874 5874 5873 5873 5874 5873 5872 5872 5870 5869 5868 5867 5866 5865 5864 5863 5861 5861 5861 5861 5860 5859 5859 5858 5857 5857 5856 5856 5856 5856 5856 5856 5856 5856 5856 5857 5857 5858 5858 5859 5860
5865 5866 5866 5867 5868 5869 5870 5870 5870 5871 5871 5871 5871 5870 5870 5869 5869 5867 5866 5865 5864 5862 5861 5861 5860 5859 5859 5858 5858 5857 5857 5856 5856 5855 5854 5854 5854 5854 5854 5854 5854 5854 5854 5854 5855 5856 5856 5857 5858
5861 5863 5863 5864 5865 5865 5867 5867 5868 5868 5868 5868 5868 5868 5868 5867 5866 5865 5864 5863 5861 5861 5860 5859 5858 5857 5857 5856 5856 5855 5855 5854 5854 5853 5853 5853 5852 5852 5852 5851 5851 5851 5851 5852 5852 5853 5854 5855 5855
5858 5859 5860 5861 5862 5863 5864 5864 5865 5866 5866 5866 5865 5866 5865 5865 5864 5863 5862 5861 5859 5858 5857 5856 5856 5855 5855 5855 5854 5854 5853 5852 5852 5852 5851 5851 5850 5850 5850 5849 5849 5849 5849 5849 5849 5850 5851 5852 5853
5853 5855 5856 5857 5859 5860 5861 5862 5862 5862 5861 5863 5863 5863 5863 5862 5861 5860 5860 5858 5857 5856 5855 5854 5854 5853 5853 5852 5852 5852 5851 5851 5850 5849 5849 5849 5848 5848 5847 5847 5847 5846 5846 5846 5846 5847 5848 5849 5850
5849 5851 5853 5855 5856 5857 5859 5858 5859 5859 5859 5860 5861 5861 5861 5860 5859 5858 5857 5856 5855 5854 5853 5853 5852 5851 5851 5851 5850 5850 5849 5848 5848 5847 5847 5847 5846 5845 5845 5844 5844 5844 5843 5843 5843 5844 5845 5846 5846
5845 5847 5849 5852 5853 5854 5855 5855 5856 5857 5858 5858 5858 5858 5858 5858 5857 5856 5855 5854 5853 5852 5851 5851 5850 5849 5849 5848 5848 5848 5847 5846 5846 5845 5845 5844 5844 5843 5842 5842 5841 5841 5841 5840 5841 5841 5841 5842 5843
5842 5844 5847 5849 5850 5850 5851 5852 5853 5854 5855 5855 5854 5855 5855 5855 5854 5853 5853 5852 5851 5850 5849 5849 5848 5847 5846 5846 5846 5845 5845 5844 5844 5843 5843 5842 5841 5841 5840 5839 5839 5838 5838 5838 5838 5838 5838 5839 5839
5839 5842 5844 5846 5847 5848 5848 5849 5850 5851 5851 5851 5851 5852 5852 5852 5851 5851 5850 5850 5849 5849 5848 5847 5846 5845 5844 5844 5844 5843 5842 5842 5841 5841 5840 5839 5839 5838 5837 5836 5836 5835 5835 5834 5834 5835 5835 5835 5835
5835 5837 5840 5842 5844 5845 5845 5846 5846 5847 5848 5848 5848 5849 5848 5849 5848 5848 5848 5847 5847 5846 5846 5845 5844 5843 5842 5842 5841 5840 5839 5839 5838 5838 5837 5836 5836 5835 5834 5833 5832 5832 5831 5831 5831 5831 5831 5831 5831
5830 5832 5836 5839 5840 5841 5842 5842 5844 5844 5844 5845 5845 5845 5845 5845 5845 5845 5845 5845 5844 5844 5844 5843 5841 5840 5839 5839 5838 5837 5836 5836 5835 5834 5834 5833 5832 5832 5831 5830 5829 5828 5828 5827 5827 5826 5826 5826 5826
5826 5829 5832 5834 5836 5837 5839 5838 5839 5839 5840 5841 5841 5842 5841 5842 5842 5842 5842 5842 5842 5842 5841 5840 5839 5838 5837 5836 5835 5834 5833 5832 5832 5831 5830 5830 5829 5828 5827 5826 5825 5825 5824 5823 5823 5822 5822 5822 5822
5823 5826 5828 5829 5831 5832 5834 5835 5835 5835 5835 5836 5837 5838 5838 5839 5839 5839 5839 5839 5839 5839 5838 5838 5837 5836 5835 5834 5832 5831 5830 5829 5828 5827 5827 5826 5825 5824 5823 5822 5821 5820 5820 5819 5818 5818 5817 5817 5817
5819 5821 5823 5824 5826 5827 5829 5831 5831 5830 5830 5832 5833 5834 5834 5835 5836 5836 5836 5836 5836 5836 5835 5835 5834 5833 5832 5831 5829 5828 5826 5825 5824 5823 5822 5821 5821 5820 5819 5818 5817 5816 5815 5814 5814 5813 5813 5812 5812
5815 5817 5819 5821 5821 5823 5825 5826 5827 5826 5828 5829 5830 5831 5831 5832 5833 5833 5833 5833 5833 5833 5832 5832 5831 5830 5829 5827 5826 5824 5823 5821 5820 5819 5818 5817 5816 5815 5814 5813 5812 5811 5810 5809 5808 5808 5807 5807 5806
5810 5813 5815 5817 5819 5820 5822 5822 5823 5824 5824 5825 5826 5827 5827 5829 5829 5830 5830 5830 5829 5829 5828 5828 5827 5826 5825 5824 5822 5820 5819 5817 5816 5815 5813 5812 5811 5810 5810 5809 5807 5806 5805 5804 5803 5802 5802 5801 5800
5806 5808 5811 5814 5815 5817 5818 5818 5818 5819 5819 5820 5822 5822 5823 5825 5825 5826 5826 5826 5825 5825 5824 5824 5823 5823 5822 5820 5818 5817 5815 5813 5812 5811 5809 5808 5806 5805 5805 5804 5803 5801 5800 5799 5798 5797 5796 5795 5795
5801 5803 5806 5809 5810 5811 5813 5813 5814 5813 5815 5816 5817 5818 5819 5820 5821 5822 5822 5821 5821 5821 5820 5820 5819 5818 5818 5816 5815 5813 5812 5810 5808 5807 5805 5804 5802 5801 5800 5799 5798 5796 5795 5794 5792 5791 5790 5790 5789
5797 5798 5800 5802 5805 5807 5808 5810 5808 5809 5810 5811 5813 5813 5814 5816 5816 5817 5817 5817 5817 5816 5815 5815 5815 5814 5813 5812 5811 5810 5808 5806 5805 5803 5802 5800 5799 5797 5796 5794 5793 5791 5790 5789 5787 5786 5785 5784 5783
5792 5794 5795 5798 5799 5800 5802 5805 5803 5804 5806 5807 5808 5809 5808 5810 5812 5812 5812 5812 5812 5812 5811 5811 5811 5810 5810 5809 5807 5806 5804 5803 5801 5800 5798 5797 5795 5794 5792 5791 5789 5787 5786 5784 5782 5781 5780 5779 5778
Wind_Speed
2 3 4 4 4 3 0 1 5 5 6 6 6 5 5 6 7 7 7 7 8 8 8 8 8 8 8 8 7 7 6 5 5 4 4 4 4 4 4 4 5 5 5 5 6 5 5 5 5
3 4 4 4 3 1 2 4 8 7 8 7 7 6 6 7 7 7 8 8 8 8 8 8 8 8 8 8 8 8 7 6 5 5 5 4 5 5 5 4 5 5 5 5 5 5 5 5 5
5 5 5 4 2 2 4 6 9 10 8 8 8 8 8 8 8 8 7 7 8 8 8 9 9 9 9 9 8 8 7 7 6 6 5 5 5 5 5 5 5 5 6 5 5 5 5 5 5
6 6 5 4 3 3 5 8 9 10 8 9 9 10 10 9 9 9 8 8 8 8 9 9 9 9 9 9 9 9 8 8 7 6 6 6 5 5 6 6 6 6 6 6 6 6 6 6 6
7 6 5 3 5 6 8 10 9 10 9 9 10 11 10 9 9 10 10 10 9 9 10 9 9 9 9 9 9 9 9 8 7 7 7 6 6 6 6 6 6 7 7 7 7 7 8 7 6
7 6 5 7 7 8 9 11 11 10 10 10 10 11 10 10 10 11 11 11 10 10 10 10 10 10 9 9 9 9 9 8 8 7 7 7 7 7 7 7 7 7 7 7 7 8 8 8 8
9 9 7 9 9 9 10 14 12 10 10 10 11 12 11 11 12 12 12 12 12 11 11 11 11 10 10 10 10 10 10 9 9 8 8 8 7 7 7 7 7 7 7 7 8 8 8 8 8
10 12 10 9 9 12 13 14 13 12 12 12 12 13 13 13 12 13 13 13 13 13 12 12 11 11 10 10 11 10 10 10 9 10 9 9 8 8 8 8 8 8 8 8 8 9 9 9 10
11 12 11 10 10 13 15 15 14 14 14 13 14 14 14 14 13 13 14 14 14 14 13 13 12 11 11 10 11 11 10 10 10 10 10 9 8 9 9 9 9 9 9 9 9 9 9 10 10
13 13 11 12 12 14 16 15 14 13 14 14 15 15 15 14 14 14 14 15 14 14 14 14 12 12 11 11 11 10 10 10 10 10 10 9 9 9 9 9 10 10 10 10 10 10 10 11 11
14 14 13 14 15 15 16 14 13 14 15 14 14 15 15 14 14 14 14 15 15 15 15 14 12 12 12 11 11 11 10 10 9 9 9 9 9 10 9 9 10 10 10 10 11 10 10 11 11
16 17 16 16 16 16 16 15 14 15 15 14 14 14 15 14 14 15 15 15 16 15 15 13 13 13 12 11 10 10 9 10 9 9 8 8 9 10 9 9 9 10 10 11 11 11 11 11 11
17 17 17 17 17 17 16 16 16 15 15 14 14 15 16 16 15 15 15 15 16 15 14 14 13 12 11 11 10 10 10 10 9 8 8 9 9 10 9 9 10 10 11 11 12 12 12 12 12
18 18 19 18 17 16 17 17 16 15 15 16 15 15 16 16 15 16 15 15 15 14 14 14 13 12 12 11 11 10 10 10 9 9 9 9 9 10 10 10 10 11 12 12 12 12 13 13 13
18 19 19 19 18 18 18 18 16 15 15 15 15 15 16 16 16 15 15 14 14 14 14 14 13 13 13 12 11 11 11 11 10 11 10 10 9 9 10 11 12 12 12 12 12 13 13 14 14
18 19 18 17 18 18 18 17 16 15 15 14 14 15 16 15 16 15 14 14 13 14 14 13 13 14 14 13 12 12 12 12 11 11 11 11 10 11 11 11 11 12 12 13 13 13 14 14 15
17 18 19 18 17 18 18 18 17 16 15 15 15 15 16 16 15 15 14 14 14 14 14 14 14 14 14 13 12 13 13 12 11 12 11 11 11 11 12 12 12 12 13 13 13 13 14 15 16
16 17 19 18 18 18 18 18 17 15 16 15 15 15 16 17 16 15 15 14 14 14 14 14 14 14 14 13 12 13 13 12 12 13 12 12 12 13 13 13 13 13 13 13 13 14 14 15 16
16 17 19 19 19 18 18 20 18 16 16 16 16 16 16 16 16 16 15 15 14 14 14 14 14 14 13 13 13 13 13 13 13 14 13 13 14 14 14 13 13 13 13 13 13 14 15 15 16
17 17 17 17 18 19 19 20 19 17 17 18 18 18 17 16 16 16 16 15 14 14 14 15 15 14 13 13 14 14 14 14 14 14 14 14 15 15 14 13 13 13 13 14 14 15 15 16 17
18 17 17 17 17 18 19 20 19 19 18 18 18 19 18 16 16 16 16 15 13 13 14 14 14 14 14 14 14 14 14 14 14 14 14 15 15 15 14 13 13 14 14 14 15 16 17 17 17
18 17 16 16 17 18 17 18 19 20 19 18 18 18 18 15 16 15 15 14 13 14 14 14 14 14 14 14 14 14 14 14 14 14 15 16 16 15 15 15 14 15 15 15 16 16 16 17 17
18 16 17 19 18 18 17 18 19 20 19 18 19 17 16 15 15 15 15 14 14 15 15 14 14 14 15 15 15 14 15 14 14 15 16 17 16 17 17 17 16 16 16 16 16 17 17 17 18
17 17 18 18 18 20 18 18 20 21 20 19 18 16 15 14 15 15 15 14 14 15 16 15 14 15 15 15 15 15 15 15 15 16 17 17 17 17 17 17 17 17 17 18 17 17 18 18 18
18 18 19 19 19 18 16 19 21 19 19 18 17 16 16 16 15 16 16 15 15 15 15 15 15 15 16 15 15 15 16 16 16 17 17 17 17 17 17 17 17 18 18 19 19 19 19 19 19
20 20 21 21 19 18 17 22 21 20 19 18 17 18 17 17 17 17 16 16 16 16 15 15 15 16 16 17 16 16 16 16 17 17 17 17 16 16 17 17 18 18 19 20 20 19 19 20 20
20 22 20 21 20 20 20 21 21 19 17 17 17 18 18 18 18 18 17 17 17 16 16 16 15 16 16 16 16 16 16 16 16 17 16 16 16 16 17 18 18 19 20 20 19 19 19 19 20
21 20 20 21 20 20 19 20 20 19 18 17 18 18 20 20 20 19 18 17 17 17 17 17 16 16 16 16 16 16 17 17 16 16 16 15 16 16 17 18 18 19 19 19 20 20 20 20 20
20 20 19 21 22 22 22 19 17 17 17 18 19 20 21 20 21 21 19 17 17 18 17 17 17 16 16 16 16 16 17 17 16 15 15 15 15 16 16 17 17 18 19 19 20 20 20 20 20
20 20 19 21 24 23 23 22 18 16 17 18 20 21 20 21 21 21 19 18 18 17 17 17 17 17 17 17 16 16 17 17 16 15 15 15 15 15 15 15 16 16 17 18 18 19 19 19 19
Wind_Direction
187 160 150 143 137 113 356 305 273 265 261 266 271 271 275 285 297 302 307 310 316 323 324 322 323 323 322 322 320 318 314 308 300 288 285 279 276 266 259 247 240 234 230 233 227 219 231 240 236
188 175 169 161 164 159 293 264 268 266 267 276 281 280 281 288 295 299 303 305 311 319 320 317 318 321 320 320 317 314 311 303 297 285 277 279 281 276 264 256 252 248 238 236 233 234 239 244 244
190 185 179 178 201 225 247 255 263 277 279 279 278 280 283 290 294 299 304 311 311 315 315 313 314 315 315 314 310 310 308 299 294 289 280 278 280 277 267 264 258 250 242 237 236 236 239 247 253
200 189 189 178 225 253 249 259 268 278 281 281 283 283 281 286 296 302 307 311 315 315 312 310 312 312 309 310 309 306 308 300 294 289 280 275 275 272 269 267 256 248 240 239 239 237 237 245 251
205 199 201 235 256 254 259 265 268 275 282 280 284 283 282 286 297 305 310 313 314 314 312 309 312 309 305 305 308 307 308 301 296 289 282 280 279 275 277 268 254 245 241 240 241 242 239 237 242
209 209 230 246 250 253 259 267 268 266 274 277 279 280 285 292 299 306 309 312 312 313 309 310 310 307 302 302 305 307 304 299 294 291 284 279 277 275 277 272 256 252 246 243 245 247 246 247 251
218 216 228 246 250 253 259 260 261 258 262 272 276 281 286 290 299 303 305 310 310 310 309 307 309 304 300 301 304 304 301 298 295 290 284 278 273 274 271 263 260 258 256 254 248 244 245 246 248
221 223 219 232 246 251 255 258 259 259 259 264 272 276 286 292 297 301 304 307 310 308 309 307 305 302 299 299 300 298 300 298 294 290 284 276 274 269 266 263 261 259 258 257 254 248 246 244 247
228 232 222 222 231 251 259 260 259 261 261 264 274 278 285 291 299 302 303 304 306 306 306 305 302 301 300 297 296 294 296 297 294 290 284 276 273 269 266 264 264 261 258 258 256 252 251 247 248
232 237 228 228 229 241 256 260 260 262 266 268 273 278 282 288 296 300 302 302 303 304 305 303 302 301 300 297 294 294 294 296 293 289 283 279 271 269 269 266 267 264 260 259 259 257 255 253 250
237 239 229 233 232 235 247 253 254 255 260 266 275 282 283 286 295 299 300 301 303 304 303 303 301 301 298 296 294 294 293 295 294 291 285 282 277 274 272 269 267 264 262 260 262 261 256 254 254
239 239 234 237 237 240 245 246 250 255 260 268 273 276 281 287 293 295 298 301 304 305 302 300 297 297 297 296 293 292 293 296 299 298 294 291 283 279 276 271 274 268 267 266 263 262 260 257 255
237 238 239 241 245 243 249 253 254 256 260 263 266 272 279 286 290 291 295 299 302 303 301 298 295 296 295 293 292 290 291 296 298 300 301 302 289 281 276 278 280 275 271 270 268 265 263 261 261
237 239 241 241 245 247 252 255 256 255 254 260 266 271 277 282 286 290 296 298 299 300 299 295 295 295 293 288 288 289 289 293 292 291 297 301 296 287 281 279 278 278 275 272 271 267 265 265 265
237 239 243 244 244 248 253 253 252 253 253 260 266 270 275 281 287 291 295 298 299 300 300 295 292 295 291 288 290 292 291 288 289 288 293 298 295 293 288 282 282 278 277 274 273 269 265 266 266
240 242 246 251 253 250 251 253 251 257 265 265 267 270 275 281 286 289 292 298 300 300 300 300 295 292 290 289 287 289 289 290 288 288 292 296 296 295 293 292 289 284 281 277 274 272 268 266 268
247 249 250 255 258 254 252 254 253 255 264 268 268 271 276 282 285 287 291 294 298 299 299 302 299 294 292 289 289 290 291 291 288 293 294 297 300 301 298 295 290 286 283 279 275 272 269 268 270
253 255 254 255 255 255 254 256 259 256 262 267 270 274 278 281 283 285 287 290 294 297 297 299 299 298 294 293 292 293 294 293 291 294 297 297 299 302 302 297 291 287 281 278 276 273 273 273 273
243 245 251 253 249 251 254 254 259 260 260 264 271 275 276 277 277 281 284 287 291 293 296 296 299 298 293 292 293 294 293 290 291 290 292 295 298 300 299 295 291 287 283 280 279 277 277 277 276
239 239 244 248 248 249 250 252 257 259 263 263 267 272 273 274 276 277 280 284 289 293 295 296 297 295 293 292 293 294 295 292 290 289 292 296 295 296 295 292 288 286 283 281 279 278 278 278 277
236 235 236 243 246 248 251 252 259 261 263 267 267 270 269 268 273 276 277 280 286 291 295 297 297 297 298 298 298 297 296 295 291 291 292 293 293 291 292 293 290 286 285 283 281 280 278 277 276
241 237 232 238 245 246 243 251 256 260 260 265 268 268 267 266 272 276 277 280 284 289 292 294 295 298 301 301 301 299 297 296 295 294 292 291 293 291 293 295 292 290 288 288 287 285 282 278 275
241 236 234 236 240 244 243 247 253 258 256 261 268 267 267 265 271 275 277 277 283 288 292 293 293 296 298 297 299 299 297 296 295 294 292 291 293 293 293 294 292 289 289 289 287 284 281 278 276
237 234 236 236 238 244 242 246 249 252 257 262 267 267 267 265 270 274 278 281 283 287 289 291 294 298 297 296 297 298 297 297 296 294 292 291 291 292 292 292 291 290 290 289 287 285 282 279 275
231 230 235 238 242 243 245 251 253 252 258 263 265 265 264 267 270 273 277 280 282 286 288 289 292 297 298 296 297 297 299 297 296 296 292 291 291 290 289 291 289 289 289 289 286 284 282 280 275
233 232 234 238 245 245 245 252 257 256 260 258 259 259 261 265 268 273 277 277 280 284 287 289 292 296 298 298 298 298 299 300 297 297 295 292 291 290 289 289 289 288 288 288 287 285 284 281 278
235 235 233 240 243 248 250 255 260 254 259 252 253 254 258 263 267 271 275 276 277 280 284 287 289 293 296 298 301 300 300 301 298 297 297 296 293 290 289 289 288 289 289 288 287 288 288 285 282
238 230 226 229 239 244 244 252 257 256 258 258 258 256 259 261 265 270 273 277 277 278 280 284 286 287 290 295 300 302 304 305 303 301 299 297 297 295 293 291 292 291 290 289 289 288 288 287 284
234 235 236 231 233 244 248 249 252 254 254 260 264 264 261 261 262 265 269 273 277 277 279 283 285 289 290 292 295 299 302 304 305 303 301 299 299 299 298 298 297 296 293 290 290 291 291 292 289
239 236 237 239 236 238 246 250 251 254 258 260 262 264 265 264 263 265 267 270 273 275 277 282 284 287 289 292 295 299 303 302 302 302 302 302 302 302 301 302 302 301 301 298 294 293 295 297 295